Location: Eferding
(48.3167°N, 14.0167°E)
Time: 13:28:30
(UTC+00:00)

USA 229 DEB - Pass Details

Date: 12 November 2019
Orbit: 997 x 1215 km, 63.4° (Epoch: 02 December)

Event Time Altitude Azimuth Distance (km) Brightness Sun altitude
Rises 16:36:28 0° 189° (S) 3,715 6.9 -11.3°
Reaches altitude 10° 16:39:11 10° 181° (S) 2,783 6.1 -11.7°
Maximum altitude 16:45:06 37° 116° (ESE) 1,545 4.2 -12.7°
Enters shadow 16:49:59 16° 57° (ENE) 2,500 5.1 -13.5°
